Location: Santa Giusta
(39.8800°N, 8.6069°E)
Time: 17:07:56
(UTC+00:00)

Cosmos 2266 Rocket - Pass Details

Date: 02 February 2023
Orbit: 933 x 1008 km, 82.9° (Epoch: 30 March)

Event Time Altitude Azimuth Distance (km) Brightness Sun altitude
Rises 17:14:42 0° 352° (N) 3,706 6.9 -6.1°
Reaches altitude 10° 17:17:15 10° 352° (N) 2,743 6.3 -6.6°
Maximum altitude 17:23:33 87° 266° (W) 975 4.1 -7.7°
Drops below altitude 10° 17:29:41 10° 176° (S) 2,673 6.4 -8.9°
Sets 17:32:08 0° 176° (S) 3,605 7.1 -9.3°
